Santiago de Cuba, Cuba

1:42 PM CDT on May 22, 2018 (GMT -0400)
Antonio Maceo International

Weather History for MUCU - February, 2018

Change the Weather History Date:

Tuesday, February 13, 2018

  Actual Average Record
Temperature  
Mean Temperature 78 °F -  
Max Temperature 88 °F 80 °F 89 °F (2004)
Min Temperature 69 °F 67 °F 62 °F (2005)
Cooling Degree Days 14    
Growing Degree Days 28 (Base 50)    
Moisture  
Dew Point 60 °F    
Average Humidity 54    
Maximum Humidity 68    
Minimum Humidity 26    
Precipitation  
Precipitation 0.00 in - - ()
Sea Level Pressure  
Sea Level Pressure 30.18 in    
Wind  
Wind Speed 8 mph ()    
Max Wind Speed 14 mph    
Max Gust Speed -    
Visibility 5.8 miles    
Events      
Averages and records for this station are not official NWS values.
T = Trace of Precipitation, MM = Missing Value Source: Averaged Metar Reports

Daily Weather History Graph

Daily Weather History Graph

Search for Another Location

Airport or City:

Astronomy

Feb. 13, 2018 Rise Set
Actual Time 6:33 AM CST 6:01 PM CST
Civil Twilight 6:11 AM CST 6:24 PM CST
Nautical Twilight 5:45 AM CST 6:50 PM CST
Astronomical Twilight 5:19 AM CST 7:16 PM CST
Moon 4:55 AM CST (2/13) 4:20 PM CST (2/13)
Length of Visible Light 12h 13m
Length of Day
11h 28m
Waning Crescent, 4% of the Moon is Illuminated
Feb 13
Waning Crescent
Feb 15
New
Feb 23
First Quarter
Mar 1
Full
Mar 9
Last Quarter

Hourly Weather History & Observations

Time (CST) Temp. Heat Index Dew Point Humidity Pressure Visibility Wind Dir Wind Speed Gust Speed Precip Events Conditions
12:50 AM 71.6 °F - 59.0 °F 64% 30.15 in 5.6 mi North 8.1 mph - N/A   Partly Cloudy
1:00 AM 72 °F - 59 °F 54% 30.18 in 6 mi North 8.9 mph - -   Haze
1:52 AM 71.6 °F - 59.0 °F 64% 30.15 in 5.6 mi North 6.9 mph - N/A   Partly Cloudy
2:53 AM 71.6 °F - 59.0 °F 64% 30.15 in 5.6 mi North 9.2 mph - N/A   Partly Cloudy
3:50 AM 69.8 °F - 59.0 °F 68% 30.12 in 5.6 mi NNW 6.9 mph - N/A   Partly Cloudy
4:00 AM 70 °F - 59 °F 61% 30.15 in 6 mi NNW 6.7 mph - -   Haze
4:50 AM 69.8 °F - 59.0 °F 68% 30.15 in 5.6 mi NNW 6.9 mph - N/A   Partly Cloudy
5:50 AM 71.6 °F - 59.0 °F 64% 30.18 in 5.6 mi NNW 4.6 mph - N/A   Partly Cloudy
6:50 AM 69.8 °F - 59.0 °F 68% 30.21 in 5.6 mi NNE 8.1 mph - N/A   Partly Cloudy
7:00 AM 70 °F - 59 °F 59% 30.21 in 6 mi NNE 8.9 mph - -   Haze
7:50 AM 75.2 °F - 59.0 °F 57% 30.21 in 6.2 mi NNE 6.9 mph - N/A   Partly Cloudy
8:52 AM 78.8 °F - 60.8 °F 54% 30.24 in 6.2 mi NNE 8.1 mph - N/A   Scattered Clouds
9:51 AM 82.4 °F 82.5 °F 59.0 °F 45% 30.24 in 6.2 mi NNE 10.4 mph - N/A   Partly Cloudy
10:00 AM 83 °F - 60 °F 35% 30.26 in 6 mi NNE 11.2 mph - -   Partly Cloudy
10:50 AM 84.2 °F 83.8 °F 59.0 °F 42% 30.24 in 5.6 mi ENE 9.2 mph - N/A   Scattered Clouds
11:51 AM 84.2 °F 83.8 °F 59.0 °F 42% 30.21 in 5.6 mi ENE 9.2 mph - N/A   Scattered Clouds
12:51 PM 87.8 °F 86.5 °F 57.2 °F 35% 30.15 in 5.6 mi ENE 8.1 mph - N/A   Scattered Clouds
1:00 PM 88 °F - 58 °F 26% 30.18 in 6 mi East 8.9 mph - -   Haze
1:50 PM 84.2 °F 85.6 °F 64.4 °F 51% 30.12 in 5.6 mi SE 10.4 mph - N/A   Scattered Clouds
2:51 PM 84.2 °F 86.6 °F 66.2 °F 55% 30.12 in 5.6 mi SE 13.8 mph - N/A   Partly Cloudy
3:50 PM 82.4 °F 85.4 °F 68.0 °F 62% 30.12 in 5.6 mi SE 12.7 mph - N/A   Partly Cloudy
4:00 PM 83 °F - 67 °F 50% 30.14 in 6 mi SE 13.4 mph - -   Haze
4:50 PM 86.0 °F 84.5 °F 55.4 °F 35% 30.12 in 5.6 mi ENE 9.2 mph - N/A   Partly Cloudy
5:53 PM 80.6 °F 80.8 °F 57.2 °F 45% 30.15 in 5.6 mi NE 11.5 mph - N/A   Partly Cloudy
6:52 PM 78.8 °F - 59.0 °F 51% 30.18 in 5.6 mi NNE 11.5 mph - N/A   Partly Cloudy
7:00 PM 78 °F - 58 °F 41% 30.19 in 6 mi NNE 11.2 mph - -   Haze
7:51 PM 77.0 °F - 59.0 °F 54% 30.18 in 5.6 mi NNE 10.4 mph - N/A   Partly Cloudy
8:50 PM 75.2 °F - 59.0 °F 57% 30.21 in 5.6 mi NNE 8.1 mph - N/A   Partly Cloudy
9:52 PM 73.4 °F - 60.8 °F 65% 30.21 in 5.6 mi NNE 9.2 mph - N/A   Partly Cloudy
10:00 PM 74 °F - 60 °F 53% 30.23 in 6 mi NNE 8.9 mph - -   Haze
10:52 PM 73.4 °F - 60.8 °F 65% 30.21 in 5.6 mi North 10.4 mph - N/A   Partly Cloudy
11:50 PM 73.4 °F - 60.8 °F 65% 30.21 in 5.6 mi North 9.2 mph - N/A   Partly Cloudy